Time,TemperatureF,DewpointF,PressureIn,WindDirection,WindDirectionDegrees,WindSpeedMPH,WindSpeedGustMPH,Humidity,HourlyPrecipIn,Conditions,Clouds,dailyrainin,SolarRadiationWatts/m^2,SoftwareType,DateUTC
2013-11-18 00:01:00,60.4,59.5,28.80,West,270,4.0,-999.0,97,0.21,,,1.64,0,Wunderground v.1.15,2013-11-17 13:01:00,
2013-11-18 00:06:00,60.4,59.5,28.80,West,270,4.0,-999.0,97,0.21,,,1.64,0,Wunderground v.1.15,2013-11-17 13:06:00,
2013-11-18 00:11:00,60.4,59.5,28.80,West,270,4.0,-999.0,97,0.21,,,1.64,0,Wunderground v.1.15,2013-11-17 13:11:00,
2013-11-18 00:16:00,60.4,59.5,28.80,West,270,4.0,-999.0,97,0.17,,,1.64,0,Wunderground v.1.15,2013-11-17 13:16:00,
2013-11-18 00:21:00,60.4,59.5,28.80,West,270,4.0,-999.0,97,0.17,,,1.64,0,Wunderground v.1.15,2013-11-17 13:21:00,
2013-11-18 00:26:00,60.4,59.5,28.80,West,270,4.0,-999.0,97,0.17,,,1.64,0,Wunderground v.1.15,2013-11-17 13:26:00,
2013-11-18 00:31:00,60.4,59.5,28.80,West,270,4.0,-999.0,97,0.17,,,1.64,0,Wunderground v.1.15,2013-11-17 13:31:00,
2013-11-18 00:36:00,60.4,59.5,28.80,West,270,4.0,-999.0,97,0.17,,,1.64,0,Wunderground v.1.15,2013-11-17 13:36:00,
2013-11-18 00:41:00,60.4,59.5,28.80,West,270,4.0,-999.0,97,0.17,,,1.64,0,Wunderground v.1.15,2013-11-17 13:41:00,
2013-11-18 00:46:00,59.9,59.0,28.79,SW,225,4.0,-999.0,97,0.13,,,1.64,0,Wunderground v.1.15,2013-11-17 13:46:00,
2013-11-18 00:51:00,59.9,59.0,28.79,SW,225,4.0,-999.0,97,0.13,,,1.64,0,Wunderground v.1.15,2013-11-17 13:51:00,
2013-11-18 00:56:00,59.9,59.0,28.79,SW,225,4.0,-999.0,97,0.13,,,1.64,0,Wunderground v.1.15,2013-11-17 13:56:00,
2013-11-18 01:01:00,59.9,59.0,28.79,SW,225,4.0,-999.0,97,0.08,,,1.64,0,Wunderground v.1.15,2013-11-17 14:01:00,
2013-11-18 01:06:00,59.9,59.0,28.79,SW,225,4.0,-999.0,97,0.08,,,1.64,0,Wunderground v.1.15,2013-11-17 14:06:00,
2013-11-18 01:11:00,59.9,59.0,28.79,SW,225,4.0,-999.0,97,0.08,,,1.64,0,Wunderground v.1.15,2013-11-17 14:11:00,
2013-11-18 01:16:00,60.0,59.1,28.78,WSW,248,5.0,-999.0,97,0.09,,,1.64,0,Wunderground v.1.15,2013-11-17 14:16:00,
2013-11-18 01:21:00,60.0,59.1,28.78,WSW,248,5.0,-999.0,97,0.09,,,1.64,0,Wunderground v.1.15,2013-11-17 14:21:00,
2013-11-18 01:26:00,60.0,59.1,28.78,WSW,248,5.0,-999.0,97,0.09,,,1.64,0,Wunderground v.1.15,2013-11-17 14:26:00,
2013-11-18 01:31:00,60.0,59.1,28.78,WSW,248,5.0,-999.0,97,0.09,,,1.64,0,Wunderground v.1.15,2013-11-17 14:31:00,
2013-11-18 01:36:00,60.0,59.1,28.78,WSW,248,5.0,-999.0,97,0.09,,,1.64,0,Wunderground v.1.15,2013-11-17 14:36:00,
2013-11-18 01:41:00,60.0,59.1,28.78,WSW,248,5.0,-999.0,97,0.09,,,1.64,0,Wunderground v.1.15,2013-11-17 14:41:00,
2013-11-18 01:46:00,59.9,59.0,28.77,SW,225,4.0,-999.0,97,0.09,,,1.64,0,Wunderground v.1.15,2013-11-17 14:46:00,
2013-11-18 01:51:00,59.9,59.0,28.77,SW,225,4.0,-999.0,97,0.09,,,1.64,0,Wunderground v.1.15,2013-11-17 14:51:00,
2013-11-18 01:56:00,59.9,59.0,28.77,SW,225,4.0,-999.0,97,0.09,,,1.64,0,Wunderground v.1.15,2013-11-17 14:56:00,
2013-11-18 02:01:00,59.9,59.0,28.77,SW,225,4.0,-999.0,97,0.09,,,1.64,0,Wunderground v.1.15,2013-11-17 15:01:00,
2013-11-18 02:06:00,59.9,59.0,28.77,SW,225,4.0,-999.0,97,0.09,,,1.64,0,Wunderground v.1.15,2013-11-17 15:06:00,
2013-11-18 02:11:00,59.9,59.0,28.77,SW,225,4.0,-999.0,97,0.09,,,1.64,0,Wunderground v.1.15,2013-11-17 15:11:00,
2013-11-18 02:16:00,59.8,58.9,28.76,SW,225,6.0,-999.0,97,0.20,,,1.64,0,Wunderground v.1.15,2013-11-17 15:16:00,
2013-11-18 02:21:00,59.8,58.9,28.76,SW,225,6.0,-999.0,97,0.20,,,1.64,0,Wunderground v.1.15,2013-11-17 15:21:00,
2013-11-18 02:26:00,59.8,58.9,28.76,SW,225,6.0,-999.0,97,0.20,,,1.64,0,Wunderground v.1.15,2013-11-17 15:26:00,
2013-11-18 02:31:00,59.8,58.9,28.76,SW,225,6.0,-999.0,97,0.20,,,1.64,0,Wunderground v.1.15,2013-11-17 15:31:00,
2013-11-18 02:36:00,59.8,58.9,28.76,SW,225,6.0,-999.0,97,0.20,,,1.64,0,Wunderground v.1.15,2013-11-17 15:36:00,
2013-11-18 02:41:00,59.8,58.9,28.76,SW,225,6.0,-999.0,97,0.20,,,1.64,0,Wunderground v.1.15,2013-11-17 15:41:00,
2013-11-18 02:46:00,59.7,58.8,28.75,SW,225,6.0,-999.0,97,0.24,,,1.64,0,Wunderground v.1.15,2013-11-17 15:46:00,
2013-11-18 02:51:00,59.7,58.8,28.75,SW,225,6.0,-999.0,97,0.24,,,1.64,0,Wunderground v.1.15,2013-11-17 15:51:00,
2013-11-18 02:56:00,59.7,58.8,28.75,SW,225,6.0,-999.0,97,0.24,,,1.64,0,Wunderground v.1.15,2013-11-17 15:56:00,
2013-11-18 03:01:00,59.7,58.8,28.75,SW,225,6.0,-999.0,97,0.24,,,1.64,0,Wunderground v.1.15,2013-11-17 16:01:00,
2013-11-18 03:06:00,59.7,58.8,28.75,SW,225,6.0,-999.0,97,0.24,,,1.64,0,Wunderground v.1.15,2013-11-17 16:06:00,
2013-11-18 03:11:00,59.7,58.8,28.75,SW,225,6.0,-999.0,97,0.24,,,1.64,0,Wunderground v.1.15,2013-11-17 16:11:00,
2013-11-18 03:16:00,59.9,59.0,28.75,SW,225,5.0,-999.0,97,0.30,,,1.64,0,Wunderground v.1.15,2013-11-17 16:16:00,
2013-11-18 03:21:00,59.9,59.0,28.75,SW,225,5.0,-999.0,97,0.30,,,1.64,0,Wunderground v.1.15,2013-11-17 16:21:00,
2013-11-18 03:26:00,59.9,59.0,28.75,SW,225,5.0,-999.0,97,0.30,,,1.64,0,Wunderground v.1.15,2013-11-17 16:26:00,
2013-11-18 03:31:00,59.9,59.0,28.75,SW,225,5.0,-999.0,97,0.30,,,1.64,0,Wunderground v.1.15,2013-11-17 16:31:00,
2013-11-18 03:36:00,59.9,59.0,28.75,SW,225,5.0,-999.0,97,0.30,,,1.64,0,Wunderground v.1.15,2013-11-17 16:36:00,
2013-11-18 03:41:00,59.9,59.0,28.75,SW,225,5.0,-999.0,97,0.30,,,1.64,0,Wunderground v.1.15,2013-11-17 16:41:00,
2013-11-18 03:46:00,60.3,59.7,28.74,WSW,248,3.0,-999.0,98,0.31,,,1.64,0,Wunderground v.1.15,2013-11-17 16:46:00,
2013-11-18 03:51:00,60.3,59.7,28.74,WSW,248,3.0,-999.0,98,0.31,,,1.64,0,Wunderground v.1.15,2013-11-17 16:51:00,
2013-11-18 03:56:00,60.3,59.7,28.74,WSW,248,3.0,-999.0,98,0.31,,,1.64,0,Wunderground v.1.15,2013-11-17 16:56:00,
2013-11-18 04:01:00,60.3,59.7,28.74,WSW,248,3.0,-999.0,98,0.31,,,1.64,0,Wunderground v.1.15,2013-11-17 17:01:00,
2013-11-18 04:06:00,60.3,59.7,28.74,WSW,248,3.0,-999.0,98,0.31,,,1.64,0,Wunderground v.1.15,2013-11-17 17:06:00,
2013-11-18 04:11:00,60.3,59.7,28.74,WSW,248,3.0,-999.0,98,0.31,,,1.64,0,Wunderground v.1.15,2013-11-17 17:11:00,
2013-11-18 04:16:00,60.3,59.7,28.74,SW,225,4.0,-999.0,98,0.17,,,1.64,0,Wunderground v.1.15,2013-11-17 17:16:00,
2013-11-18 04:21:00,60.3,59.7,28.74,SW,225,4.0,-999.0,98,0.17,,,1.64,0,Wunderground v.1.15,2013-11-17 17:21:00,
2013-11-18 04:26:00,60.3,59.7,28.74,SW,225,4.0,-999.0,98,0.17,,,1.64,0,Wunderground v.1.15,2013-11-17 17:26:00,
2013-11-18 04:31:00,60.3,59.7,28.74,SW,225,4.0,-999.0,98,0.17,,,1.64,0,Wunderground v.1.15,2013-11-17 17:31:00,
2013-11-18 04:36:00,60.3,59.7,28.74,SW,225,4.0,-999.0,98,0.17,,,1.64,0,Wunderground v.1.15,2013-11-17 17:36:00,
2013-11-18 04:41:00,60.3,59.7,28.74,SW,225,4.0,-999.0,98,0.17,,,1.64,0,Wunderground v.1.15,2013-11-17 17:41:00,
2013-11-18 04:46:00,59.9,59.0,28.74,SW,225,6.0,-999.0,97,0.04,,,1.64,0,Wunderground v.1.15,2013-11-17 17:46:00,
2013-11-18 04:51:00,59.9,59.0,28.74,SW,225,6.0,-999.0,97,0.04,,,1.64,0,Wunderground v.1.15,2013-11-17 17:51:00,
2013-11-18 04:56:00,59.9,59.0,28.74,SW,225,6.0,-999.0,97,0.04,,,1.64,0,Wunderground v.1.15,2013-11-17 17:56:00,
2013-11-18 05:01:00,59.9,59.0,28.74,SW,225,6.0,-999.0,97,0.04,,,1.64,0,Wunderground v.1.15,2013-11-17 18:01:00,
2013-11-18 05:06:00,59.9,59.0,28.74,SW,225,6.0,-999.0,97,0.04,,,1.64,0,Wunderground v.1.15,2013-11-17 18:06:00,
2013-11-18 05:11:00,59.9,59.0,28.74,SW,225,6.0,-999.0,97,0.04,,,1.64,0,Wunderground v.1.15,2013-11-17 18:11:00,
2013-11-18 05:16:00,59.9,59.0,28.74,SW,225,4.0,-999.0,97,0.18,,,1.64,0,Wunderground v.1.15,2013-11-17 18:16:00,
2013-11-18 05:21:00,59.9,59.0,28.74,SW,225,4.0,-999.0,97,0.18,,,1.64,0,Wunderground v.1.15,2013-11-17 18:21:00,
2013-11-18 05:26:00,59.9,59.0,28.74,SW,225,4.0,-999.0,97,0.18,,,1.64,0,Wunderground v.1.15,2013-11-17 18:26:00,
2013-11-18 05:31:00,59.9,59.0,28.74,SW,225,4.0,-999.0,97,0.18,,,1.64,0,Wunderground v.1.15,2013-11-17 18:31:00,
2013-11-18 05:36:00,59.9,59.0,28.74,SW,225,4.0,-999.0,97,0.18,,,1.64,0,Wunderground v.1.15,2013-11-17 18:36:00,
2013-11-18 05:41:00,59.9,59.0,28.74,SW,225,4.0,-999.0,97,0.18,,,1.64,0,Wunderground v.1.15,2013-11-17 18:41:00,
2013-11-18 05:46:00,60.5,59.9,28.74,SW,225,4.0,-999.0,98,0.20,,,1.64,0,Wunderground v.1.15,2013-11-17 18:46:00,
2013-11-18 05:51:00,60.5,59.9,28.74,SW,225,4.0,-999.0,98,0.20,,,1.64,0,Wunderground v.1.15,2013-11-17 18:51:00,
2013-11-18 05:56:00,60.5,59.9,28.74,SW,225,4.0,-999.0,98,0.20,,,1.64,0,Wunderground v.1.15,2013-11-17 18:56:00,
2013-11-18 06:01:00,60.5,59.9,28.74,SW,225,4.0,-999.0,98,0.20,,,1.64,0,Wunderground v.1.15,2013-11-17 19:01:00,
2013-11-18 06:06:00,60.5,59.9,28.74,SW,225,4.0,-999.0,98,0.20,,,1.64,0,Wunderground v.1.15,2013-11-17 19:06:00,
2013-11-18 06:11:00,60.5,59.9,28.74,SW,225,4.0,-999.0,98,0.20,,,1.64,0,Wunderground v.1.15,2013-11-17 19:11:00,
2013-11-18 06:16:00,60.4,59.8,28.74,SW,225,6.0,-999.0,98,0.09,,,1.64,3,Wunderground v.1.15,2013-11-17 19:16:00,
2013-11-18 06:21:00,60.4,59.8,28.74,SW,225,6.0,-999.0,98,0.09,,,1.64,3,Wunderground v.1.15,2013-11-17 19:21:00,
2013-11-18 06:26:00,60.4,59.8,28.74,SW,225,6.0,-999.0,98,0.09,,,1.64,3,Wunderground v.1.15,2013-11-17 19:26:00,
2013-11-18 06:31:00,60.4,59.8,28.74,SW,225,6.0,-999.0,98,0.09,,,1.64,3,Wunderground v.1.15,2013-11-17 19:31:00,
2013-11-18 06:36:00,60.4,59.8,28.74,SW,225,6.0,-999.0,98,0.09,,,1.64,3,Wunderground v.1.15,2013-11-17 19:36:00,
2013-11-18 06:41:00,60.4,59.8,28.74,SW,225,6.0,-999.0,98,0.09,,,1.64,3,Wunderground v.1.15,2013-11-17 19:41:00,
2013-11-18 06:46:00,60.3,59.7,28.74,SW,225,4.0,-999.0,98,0.06,,,1.64,7,Wunderground v.1.15,2013-11-17 19:46:00,
2013-11-18 06:51:00,60.3,59.7,28.74,SW,225,4.0,-999.0,98,0.06,,,1.64,7,Wunderground v.1.15,2013-11-17 19:51:00,
2013-11-18 06:56:00,60.3,59.7,28.74,SW,225,4.0,-999.0,98,0.06,,,1.64,7,Wunderground v.1.15,2013-11-17 19:56:00,
2013-11-18 07:01:00,60.3,59.7,28.74,SW,225,4.0,-999.0,98,0.06,,,1.64,7,Wunderground v.1.15,2013-11-17 20:01:00,
2013-11-18 07:06:00,60.3,59.7,28.74,SW,225,4.0,-999.0,98,0.06,,,1.64,7,Wunderground v.1.15,2013-11-17 20:06:00,
2013-11-18 07:11:00,60.3,59.7,28.74,SW,225,4.0,-999.0,98,0.06,,,1.64,7,Wunderground v.1.15,2013-11-17 20:11:00,
2013-11-18 07:16:00,60.3,59.2,28.74,West,270,4.0,-999.0,96,0.01,,,1.64,15,Wunderground v.1.15,2013-11-17 20:16:00,
2013-11-18 07:21:00,60.3,59.2,28.74,West,270,4.0,-999.0,96,0.01,,,1.64,15,Wunderground v.1.15,2013-11-17 20:21:00,
2013-11-18 07:26:00,60.3,59.2,28.74,West,270,4.0,-999.0,96,0.01,,,1.64,15,Wunderground v.1.15,2013-11-17 20:26:00,
2013-11-18 07:30:00,60.4,59.5,28.74,WSW,238,5.0,5.0,97,0.00,,,1.09,16,Wunderground v.1.15,2013-11-17 20:30:00,
2013-11-18 07:31:00,60.3,59.2,28.74,West,270,4.0,-999.0,96,0.01,,,1.64,15,Wunderground v.1.15,2013-11-17 20:31:00,
2013-11-18 07:36:00,60.3,59.2,28.74,West,270,4.0,-999.0,96,0.01,,,1.64,15,Wunderground v.1.15,2013-11-17 20:36:00,
2013-11-18 07:40:00,60.5,59.4,28.74,West,281,3.0,3.0,96,0.26,,,1.12,25,Wunderground v.1.15,2013-11-17 20:40:00,
2013-11-18 07:41:00,60.3,59.2,28.74,West,270,4.0,-999.0,96,0.01,,,1.64,15,Wunderground v.1.15,2013-11-17 20:41:00,
2013-11-18 07:45:00,60.5,59.4,28.74,SW,215,4.0,4.0,96,0.08,,,1.12,30,Wunderground v.1.15,2013-11-17 20:45:00,
2013-11-18 07:46:00,60.7,59.3,28.74,WSW,248,4.0,-999.0,95,0.03,,,1.64,23,Wunderground v.1.15,2013-11-17 20:46:00,
2013-11-18 07:50:00,60.6,59.5,28.74,SSW,200,5.0,5.0,96,0.05,,,1.12,18,Wunderground v.1.15,2013-11-17 20:50:00,
2013-11-18 07:51:00,60.7,59.3,28.74,WSW,248,4.0,-999.0,95,0.03,,,1.64,23,Wunderground v.1.15,2013-11-17 20:51:00,
2013-11-18 07:56:00,60.7,59.3,28.74,WSW,248,4.0,-999.0,95,0.03,,,1.64,23,Wunderground v.1.15,2013-11-17 20:56:00,
2013-11-18 08:00:00,61.3,59.9,28.75,WSW,245,5.0,5.0,95,0.00,,,1.12,19,Wunderground v.1.15,2013-11-17 21:00:00,
2013-11-18 08:01:00,60.7,59.3,28.74,WSW,248,4.0,-999.0,95,0.03,,,1.64,23,Wunderground v.1.15,2013-11-17 21:01:00,
2013-11-18 08:05:00,61.6,60.2,28.75,SW,233,5.0,5.0,95,0.00,,,1.13,11,Wunderground v.1.15,2013-11-17 21:05:00,
2013-11-18 08:06:00,60.7,59.3,28.74,WSW,248,4.0,-999.0,95,0.03,,,1.64,23,Wunderground v.1.15,2013-11-17 21:06:00,
2013-11-18 08:10:00,61.7,60.3,28.75,West,265,5.0,6.0,95,0.23,,,1.14,9,Wunderground v.1.15,2013-11-17 21:10:00,
2013-11-18 08:11:00,60.7,59.3,28.74,WSW,248,4.0,-999.0,95,0.03,,,1.64,23,Wunderground v.1.15,2013-11-17 21:11:00,
2013-11-18 08:15:00,61.5,60.1,28.74,ENE,61,6.0,6.0,95,0.11,,,1.14,11,Wunderground v.1.15,2013-11-17 21:15:00,
2013-11-18 08:16:00,61.5,60.3,28.74,SW,225,5.0,-999.0,96,0.08,,,1.64,13,Wunderground v.1.15,2013-11-17 21:16:00,
2013-11-18 08:21:00,61.5,60.3,28.74,SW,225,5.0,-999.0,96,0.08,,,1.64,13,Wunderground v.1.15,2013-11-17 21:21:00,
2013-11-18 08:25:00,61.5,60.3,28.74,WSW,238,4.0,5.0,96,0.10,,,1.16,18,Wunderground v.1.15,2013-11-17 21:25:00,
2013-11-18 08:26:00,61.5,60.3,28.74,SW,225,5.0,-999.0,96,0.08,,,1.64,13,Wunderground v.1.15,2013-11-17 21:26:00,
2013-11-18 08:30:00,61.4,60.2,28.74,South,180,5.0,5.0,96,0.18,,,1.17,23,Wunderground v.1.15,2013-11-17 21:30:00,
2013-11-18 08:31:00,61.5,60.3,28.74,SW,225,5.0,-999.0,96,0.08,,,1.64,13,Wunderground v.1.15,2013-11-17 21:31:00,
2013-11-18 08:36:00,61.5,60.3,28.74,SW,225,5.0,-999.0,96,0.08,,,1.64,13,Wunderground v.1.15,2013-11-17 21:36:00,
2013-11-18 08:40:00,61.2,60.1,28.73,SSW,205,7.0,7.0,96,0.06,,,1.17,25,Wunderground v.1.15,2013-11-17 21:40:00,
2013-11-18 08:41:00,61.5,60.3,28.74,SW,225,5.0,-999.0,96,0.08,,,1.64,13,Wunderground v.1.15,2013-11-17 21:41:00,
2013-11-18 08:45:00,61.1,60.0,28.73,South,191,7.0,7.0,96,0.15,,,1.19,12,Wunderground v.1.15,2013-11-17 21:45:00,
2013-11-18 08:46:00,61.1,60.0,28.73,SW,225,7.0,-999.0,96,0.11,,,1.64,17,Wunderground v.1.15,2013-11-17 21:46:00,
2013-11-18 08:50:00,61.1,60.0,28.73,SSW,206,7.0,7.0,96,0.14,,,1.20,16,Wunderground v.1.15,2013-11-17 21:50:00,
2013-11-18 08:51:00,61.1,60.0,28.73,SW,225,7.0,-999.0,96,0.11,,,1.64,17,Wunderground v.1.15,2013-11-17 21:51:00,
2013-11-18 08:56:00,61.1,60.0,28.73,SW,225,7.0,-999.0,96,0.11,,,1.64,17,Wunderground v.1.15,2013-11-17 21:56:00,
2013-11-18 09:00:00,60.9,59.8,28.73,SW,227,7.0,9.0,96,0.21,,,1.22,14,Wunderground v.1.15,2013-11-17 22:00:00,
2013-11-18 09:01:00,61.1,60.0,28.73,SW,225,7.0,-999.0,96,0.11,,,1.64,17,Wunderground v.1.15,2013-11-17 22:01:00,
2013-11-18 09:05:00,61.1,60.2,28.73,SSW,205,7.0,9.0,97,0.47,,,1.25,16,Wunderground v.1.15,2013-11-17 22:05:00,
2013-11-18 09:06:00,61.1,60.0,28.73,SW,225,7.0,-999.0,96,0.11,,,1.64,17,Wunderground v.1.15,2013-11-17 22:06:00,
2013-11-18 09:10:00,61.2,60.3,28.72,West,266,7.0,13.0,97,0.22,,,1.27,26,Wunderground v.1.15,2013-11-17 22:10:00,
2013-11-18 09:11:00,61.1,60.0,28.73,SW,225,7.0,-999.0,96,0.11,,,1.64,17,Wunderground v.1.15,2013-11-17 22:11:00,
2013-11-18 09:16:00,61.4,60.5,28.72,SW,225,7.0,-999.0,97,0.16,,,1.64,33,Wunderground v.1.15,2013-11-17 22:16:00,
2013-11-18 09:20:00,61.7,60.8,28.73,South,190,6.0,9.0,97,0.27,,,1.29,39,Wunderground v.1.15,2013-11-17 22:20:00,
2013-11-18 09:21:00,61.4,60.5,28.72,SW,225,7.0,-999.0,97,0.16,,,1.64,33,Wunderground v.1.15,2013-11-17 22:21:00,
2013-11-18 09:25:00,61.7,60.8,28.72,West,269,6.0,9.0,97,0.29,,,1.31,35,Wunderground v.1.15,2013-11-17 22:25:00,
2013-11-18 09:26:00,61.4,60.5,28.72,SW,225,7.0,-999.0,97,0.16,,,1.64,33,Wunderground v.1.15,2013-11-17 22:26:00,
2013-11-18 09:30:00,61.7,60.8,28.72,SSW,192,7.0,7.0,97,0.20,,,1.32,25,Wunderground v.1.15,2013-11-17 22:30:00,
2013-11-18 09:31:00,61.4,60.5,28.72,SW,225,7.0,-999.0,97,0.16,,,1.64,33,Wunderground v.1.15,2013-11-17 22:31:00,
2013-11-18 09:36:00,61.4,60.5,28.72,SW,225,7.0,-999.0,97,0.16,,,1.64,33,Wunderground v.1.15,2013-11-17 22:36:00,
2013-11-18 09:40:00,61.4,60.5,28.71,South,173,7.0,7.0,97,0.57,,,1.39,18,Wunderground v.1.15,2013-11-17 22:40:00,
2013-11-18 09:41:00,61.4,60.5,28.72,SW,225,7.0,-999.0,97,0.16,,,1.64,33,Wunderground v.1.15,2013-11-17 22:41:00,
2013-11-18 09:45:00,61.3,60.4,28.71,SSW,195,6.0,9.0,97,0.19,,,1.41,33,Wunderground v.1.15,2013-11-17 22:45:00,
2013-11-18 09:46:00,61.4,60.5,28.71,SW,225,7.0,-999.0,97,0.21,,,1.64,36,Wunderground v.1.15,2013-11-17 22:46:00,
2013-11-18 09:51:00,61.4,60.5,28.71,SW,225,7.0,-999.0,97,0.21,,,1.64,36,Wunderground v.1.15,2013-11-17 22:51:00,
2013-11-18 09:55:00,61.3,60.4,28.70,SSE,160,8.0,15.0,97,0.05,,,1.42,42,Wunderground v.1.15,2013-11-17 22:55:00,
2013-11-18 09:56:00,61.4,60.5,28.71,SW,225,7.0,-999.0,97,0.21,,,1.64,36,Wunderground v.1.15,2013-11-17 22:56:00,
2013-11-18 10:00:00,61.4,60.5,28.71,West,268,7.0,7.0,97,0.40,,,1.43,42,Wunderground v.1.15,2013-11-17 23:00:00,
2013-11-18 10:01:00,61.4,60.5,28.71,SW,225,7.0,-999.0,97,0.21,,,1.64,36,Wunderground v.1.15,2013-11-17 23:01:00,
2013-11-18 10:05:00,61.4,60.5,28.71,WSW,255,6.0,10.0,97,0.20,,,1.45,16,Wunderground v.1.15,2013-11-17 23:05:00,
2013-11-18 10:06:00,61.4,60.5,28.71,SW,225,7.0,-999.0,97,0.21,,,1.64,36,Wunderground v.1.15,2013-11-17 23:06:00,
2013-11-18 10:10:00,61.3,60.4,28.70,SSW,209,7.0,8.0,97,0.12,,,1.46,39,Wunderground v.1.15,2013-11-17 23:10:00,
2013-11-18 10:11:00,61.4,60.5,28.71,SW,225,7.0,-999.0,97,0.21,,,1.64,36,Wunderground v.1.15,2013-11-17 23:11:00,
2013-11-18 10:16:00,61.5,60.6,28.70,SW,225,7.0,-999.0,97,0.14,,,1.64,58,Wunderground v.1.15,2013-11-17 23:16:00,
2013-11-18 10:20:00,61.5,60.6,28.70,SW,228,8.0,19.0,97,0.07,,,1.46,91,Wunderground v.1.15,2013-11-17 23:20:00,
2013-11-18 10:21:00,61.5,60.6,28.70,SW,225,7.0,-999.0,97,0.14,,,1.64,58,Wunderground v.1.15,2013-11-17 23:21:00,
2013-11-18 10:25:00,61.6,60.7,28.70,SSW,213,7.0,19.0,97,0.06,,,1.47,58,Wunderground v.1.15,2013-11-17 23:25:00,
2013-11-18 10:26:00,61.5,60.6,28.70,SW,225,7.0,-999.0,97,0.14,,,1.64,58,Wunderground v.1.15,2013-11-17 23:26:00,
2013-11-18 10:30:00,61.5,60.6,28.70,West,271,7.0,11.0,97,0.06,,,1.47,72,Wunderground v.1.15,2013-11-17 23:30:00,
2013-11-18 10:31:00,61.5,60.6,28.70,SW,225,7.0,-999.0,97,0.14,,,1.64,58,Wunderground v.1.15,2013-11-17 23:31:00,
2013-11-18 10:36:00,61.5,60.6,28.70,SW,225,7.0,-999.0,97,0.14,,,1.64,58,Wunderground v.1.15,2013-11-17 23:36:00,
2013-11-18 10:40:00,61.4,60.5,28.70,SSW,204,7.0,7.0,97,0.15,,,1.49,33,Wunderground v.1.15,2013-11-17 23:40:00,
2013-11-18 10:41:00,61.5,60.6,28.70,SW,225,7.0,-999.0,97,0.14,,,1.64,58,Wunderground v.1.15,2013-11-17 23:41:00,
2013-11-18 10:45:00,61.6,61.0,28.69,South,179,6.0,7.0,98,0.08,,,1.49,193,Wunderground v.1.15,2013-11-17 23:45:00,
2013-11-18 10:46:00,61.8,61.2,28.68,SW,225,5.0,-999.0,98,0.14,,,1.64,88,Wunderground v.1.15,2013-11-17 23:46:00,
2013-11-18 10:50:00,61.9,61.0,28.68,South,190,5.0,5.0,97,1.08,,,1.55,42,Wunderground v.1.15,2013-11-17 23:50:00,
2013-11-18 10:51:00,61.8,61.2,28.68,SW,225,5.0,-999.0,98,0.14,,,1.64,88,Wunderground v.1.15,2013-11-17 23:51:00,
2013-11-18 10:56:00,61.8,61.2,28.68,SW,225,5.0,-999.0,98,0.14,,,1.64,88,Wunderground v.1.15,2013-11-17 23:56:00,
2013-11-18 11:00:00,62.9,62.3,28.68,NE,54,4.0,4.0,98,0.17,,,1.58,120,Wunderground v.1.15,2013-11-18 00:00:00,
2013-11-18 11:01:00,61.8,61.2,28.68,SW,225,5.0,-999.0,98,0.14,,,1.64,88,Wunderground v.1.15,2013-11-18 00:01:00,
2013-11-18 11:05:00,63.7,63.1,28.68,NNW,334,3.0,4.0,98,0.07,,,1.58,227,Wunderground v.1.15,2013-11-18 00:05:00,
2013-11-18 11:06:00,61.8,61.2,28.68,SW,225,5.0,-999.0,98,0.14,,,1.64,88,Wunderground v.1.15,2013-11-18 00:06:00,
2013-11-18 11:10:00,63.4,62.8,28.68,WSW,240,4.0,4.0,98,0.07,,,1.59,341,Wunderground v.1.15,2013-11-18 00:10:00,
2013-11-18 11:11:00,61.8,61.2,28.68,SW,225,5.0,-999.0,98,0.14,,,1.64,88,Wunderground v.1.15,2013-11-18 00:11:00,
2013-11-18 11:16:00,63.8,62.9,28.67,SW,225,4.0,-999.0,97,0.14,,,1.64,239,Wunderground v.1.15,2013-11-18 00:16:00,
2013-11-18 11:20:00,64.1,63.5,28.68,West,259,4.0,4.0,98,0.04,,,1.59,211,Wunderground v.1.15,2013-11-18 00:20:00,
2013-11-18 11:21:00,63.8,62.9,28.67,SW,225,4.0,-999.0,97,0.14,,,1.64,239,Wunderground v.1.15,2013-11-18 00:21:00,
2013-11-18 11:25:00,64.0,63.1,28.67,South,182,3.0,4.0,97,0.00,,,1.59,339,Wunderground v.1.15,2013-11-18 00:25:00,
2013-11-18 11:26:00,63.8,62.9,28.67,SW,225,4.0,-999.0,97,0.14,,,1.64,239,Wunderground v.1.15,2013-11-18 00:26:00,
2013-11-18 11:31:00,63.8,62.9,28.67,SW,225,4.0,-999.0,97,0.14,,,1.64,239,Wunderground v.1.15,2013-11-18 00:31:00,
2013-11-18 11:35:00,64.6,64.0,28.67,South,175,3.0,6.0,98,0.09,,,1.61,403,Wunderground v.1.15,2013-11-18 00:35:00,
2013-11-18 11:36:00,63.8,62.9,28.67,SW,225,4.0,-999.0,97,0.14,,,1.64,239,Wunderground v.1.15,2013-11-18 00:36:00,
2013-11-18 11:41:00,63.8,62.9,28.67,SW,225,4.0,-999.0,97,0.14,,,1.64,239,Wunderground v.1.15,2013-11-18 00:41:00,
2013-11-18 11:45:00,65.4,64.8,28.66,SE,136,4.0,4.0,98,0.06,,,1.62,519,Wunderground v.1.15,2013-11-18 00:45:00,
2013-11-18 11:46:00,65.2,64.3,28.66,SW,225,3.0,-999.0,97,0.04,,,1.64,342,Wunderground v.1.15,2013-11-18 00:46:00,
2013-11-18 11:50:00,65.3,64.4,28.66,South,180,4.0,4.0,97,0.05,,,1.62,269,Wunderground v.1.15,2013-11-18 00:50:00,
2013-11-18 11:51:00,65.2,64.3,28.66,SW,225,3.0,-999.0,97,0.04,,,1.64,342,Wunderground v.1.15,2013-11-18 00:51:00,
2013-11-18 11:55:00,65.4,64.8,28.66,SSW,207,4.0,4.0,98,0.04,,,1.62,190,Wunderground v.1.15,2013-11-18 00:55:00,
2013-11-18 11:56:00,65.2,64.3,28.66,SW,225,3.0,-999.0,97,0.04,,,1.64,342,Wunderground v.1.15,2013-11-18 00:56:00,
2013-11-18 12:00:00,65.5,64.6,28.66,SW,229,3.0,4.0,97,0.00,,,1.62,304,Wunderground v.1.15,2013-11-18 01:00:00,
2013-11-18 12:01:00,65.2,64.3,28.66,SW,225,3.0,-999.0,97,0.04,,,1.64,342,Wunderground v.1.15,2013-11-18 01:01:00,
2013-11-18 12:06:00,65.2,64.3,28.66,SW,225,3.0,-999.0,97,0.04,,,1.64,342,Wunderground v.1.15,2013-11-18 01:06:00,
2013-11-18 12:10:00,66.2,65.3,28.65,West,269,3.0,3.0,97,0.00,,,1.62,267,Wunderground v.1.15,2013-11-18 01:10:00,
2013-11-18 12:11:00,65.2,64.3,28.66,SW,225,3.0,-999.0,97,0.04,,,1.64,342,Wunderground v.1.15,2013-11-18 01:11:00,
2013-11-18 12:15:00,66.4,65.5,28.65,West,275,3.0,3.0,97,0.00,,,1.62,125,Wunderground v.1.15,2013-11-18 01:15:00,
2013-11-18 12:16:00,66.4,65.5,28.65,West,270,2.0,-999.0,97,0.02,,,1.64,327,Wunderground v.1.15,2013-11-18 01:16:00,
2013-11-18 12:20:00,66.0,64.8,28.65,South,182,3.0,3.0,96,0.00,,,1.63,81,Wunderground v.1.15,2013-11-18 01:20:00,
2013-11-18 12:21:00,66.4,65.5,28.65,West,270,2.0,-999.0,97,0.02,,,1.64,327,Wunderground v.1.15,2013-11-18 01:21:00,
2013-11-18 12:26:00,66.4,65.5,28.65,West,270,2.0,-999.0,97,0.02,,,1.64,327,Wunderground v.1.15,2013-11-18 01:26:00,
2013-11-18 12:30:00,68.1,67.2,28.65,NNE,13,2.0,8.0,97,0.00,,,1.63,1013,Wunderground v.1.15,2013-11-18 01:30:00,
2013-11-18 12:31:00,66.4,65.5,28.65,West,270,2.0,-999.0,97,0.02,,,1.64,327,Wunderground v.1.15,2013-11-18 01:31:00,
2013-11-18 12:36:00,66.4,65.5,28.65,West,270,2.0,-999.0,97,0.02,,,1.64,327,Wunderground v.1.15,2013-11-18 01:36:00,
2013-11-18 12:40:00,70.9,69.1,28.65,NE,53,3.0,4.0,94,0.00,,,1.63,1107,Wunderground v.1.15,2013-11-18 01:40:00,
2013-11-18 12:41:00,66.4,65.5,28.65,West,270,2.0,-999.0,97,0.02,,,1.64,327,Wunderground v.1.15,2013-11-18 01:41:00,
2013-11-18 12:45:00,71.3,67.9,28.65,NE,41,3.0,4.0,89,0.00,,,1.63,1102,Wunderground v.1.15,2013-11-18 01:45:00,
2013-11-18 12:46:00,71.0,64.9,28.65,North,0,3.0,-999.0,81,0.01,,,1.64,1120,Wunderground v.1.15,2013-11-18 01:46:00,
2013-11-18 12:50:00,72.0,68.2,28.65,NW,325,3.0,3.0,88,0.00,,,1.63,1078,Wunderground v.1.15,2013-11-18 01:50:00,
2013-11-18 12:51:00,71.0,64.9,28.65,North,0,3.0,-999.0,81,0.01,,,1.64,1120,Wunderground v.1.15,2013-11-18 01:51:00,
2013-11-18 12:55:00,72.6,67.1,28.65,ENE,74,3.0,3.0,83,0.00,,,1.63,1118,Wunderground v.1.15,2013-11-18 01:55:00,
2013-11-18 12:56:00,71.0,64.9,28.65,North,0,3.0,-999.0,81,0.01,,,1.64,1120,Wunderground v.1.15,2013-11-18 01:56:00,
2013-11-18 13:00:00,72.0,65.8,28.65,West,279,3.0,3.0,81,0.00,,,1.63,1225,Wunderground v.1.15,2013-11-18 02:00:00,
2013-11-18 13:01:00,71.0,64.9,28.65,North,0,3.0,-999.0,81,0.01,,,1.64,1120,Wunderground v.1.15,2013-11-18 02:01:00,
2013-11-18 13:06:00,71.0,64.9,28.65,North,0,3.0,-999.0,81,0.01,,,1.64,1120,Wunderground v.1.15,2013-11-18 02:06:00,
2013-11-18 13:10:00,71.6,65.8,28.66,NW,313,3.0,3.0,82,0.00,,,1.63,1257,Wunderground v.1.15,2013-11-18 02:10:00,
2013-11-18 13:11:00,71.0,64.9,28.65,North,0,3.0,-999.0,81,0.01,,,1.64,1120,Wunderground v.1.15,2013-11-18 02:11:00,
2013-11-18 13:15:00,71.8,65.3,28.66,East,82,3.0,5.0,80,0.00,,,1.63,1185,Wunderground v.1.15,2013-11-18 02:15:00,
2013-11-18 13:16:00,71.8,65.3,28.66,NE,45,3.0,-999.0,80,0.00,,,1.64,1095,Wunderground v.1.15,2013-11-18 02:16:00,
2013-11-18 13:20:00,71.8,65.7,28.66,NW,305,2.0,2.0,81,0.00,,,1.63,1229,Wunderground v.1.15,2013-11-18 02:20:00,
2013-11-18 13:21:00,71.8,65.3,28.66,NE,45,3.0,-999.0,80,0.00,,,1.64,1095,Wunderground v.1.15,2013-11-18 02:21:00,
2013-11-18 13:25:00,72.0,65.1,28.66,ENE,58,3.0,3.0,79,0.00,,,1.63,403,Wunderground v.1.15,2013-11-18 02:25:00,
2013-11-18 13:26:00,71.8,65.3,28.66,NE,45,3.0,-999.0,80,0.00,,,1.64,1095,Wunderground v.1.15,2013-11-18 02:26:00,
2013-11-18 13:31:00,71.8,65.3,28.66,NE,45,3.0,-999.0,80,0.00,,,1.64,1095,Wunderground v.1.15,2013-11-18 02:31:00,
2013-11-18 13:35:00,71.6,64.4,28.67,NNW,341,2.0,3.0,78,0.00,,,1.63,1100,Wunderground v.1.15,2013-11-18 02:35:00,
2013-11-18 13:36:00,71.8,65.3,28.66,NE,45,3.0,-999.0,80,0.00,,,1.64,1095,Wunderground v.1.15,2013-11-18 02:36:00,
2013-11-18 13:40:00,71.6,64.7,28.67,North,360,2.0,4.0,79,0.00,,,1.63,1109,Wunderground v.1.15,2013-11-18 02:40:00,
2013-11-18 13:41:00,71.8,65.3,28.66,NE,45,3.0,-999.0,80,0.00,,,1.64,1095,Wunderground v.1.15,2013-11-18 02:41:00,
2013-11-18 13:46:00,71.2,63.6,28.67,ENE,68,2.0,-999.0,77,0.00,,,1.64,784,Wunderground v.1.15,2013-11-18 02:46:00,
2013-11-18 13:50:00,71.0,63.8,28.67,SW,236,2.0,3.0,78,0.00,,,1.63,1014,Wunderground v.1.15,2013-11-18 02:50:00,
2013-11-18 13:51:00,71.2,63.6,28.67,ENE,68,2.0,-999.0,77,0.00,,,1.64,784,Wunderground v.1.15,2013-11-18 02:51:00,
2013-11-18 13:55:00,71.1,63.9,28.67,ENE,74,2.0,3.0,78,0.00,,,1.63,420,Wunderground v.1.15,2013-11-18 02:55:00,
2013-11-18 13:56:00,71.2,63.6,28.67,ENE,68,2.0,-999.0,77,0.00,,,1.64,784,Wunderground v.1.15,2013-11-18 02:56:00,
2013-11-18 14:00:00,70.1,62.6,28.67,North,5,1.0,3.0,77,0.00,,,1.63,436,Wunderground v.1.15,2013-11-18 03:00:00,
2013-11-18 14:01:00,71.2,63.6,28.67,ENE,68,2.0,-999.0,77,0.00,,,1.64,784,Wunderground v.1.15,2013-11-18 03:01:00,
2013-11-18 14:05:00,68.2,61.4,28.68,West,276,3.0,3.0,79,0.00,,,1.63,230,Wunderground v.1.15,2013-11-18 03:05:00,
2013-11-18 14:06:00,71.2,63.6,28.67,ENE,68,2.0,-999.0,77,0.00,,,1.64,784,Wunderground v.1.15,2013-11-18 03:06:00,
2013-11-18 14:11:00,71.2,63.6,28.67,ENE,68,2.0,-999.0,77,0.00,,,1.64,784,Wunderground v.1.15,2013-11-18 03:11:00,
2013-11-18 14:15:00,67.8,62.4,28.68,South,171,4.0,4.0,83,0.00,,,1.64,668,Wunderground v.1.15,2013-11-18 03:15:00,
2013-11-18 14:16:00,68.0,61.6,28.68,ENE,68,4.0,-999.0,80,0.01,,,1.64,476,Wunderground v.1.15,2013-11-18 03:16:00,
2013-11-18 14:20:00,68.6,62.2,28.68,ENE,60,4.0,4.0,80,0.00,,,1.64,668,Wunderground v.1.15,2013-11-18 03:20:00,
2013-11-18 14:21:00,68.0,61.6,28.68,ENE,68,4.0,-999.0,80,0.01,,,1.64,476,Wunderground v.1.15,2013-11-18 03:21:00,
2013-11-18 14:25:00,68.1,61.0,28.68,East,84,4.0,4.0,78,0.00,,,1.64,385,Wunderground v.1.15,2013-11-18 03:25:00,
2013-11-18 14:26:00,68.0,61.6,28.68,ENE,68,4.0,-999.0,80,0.01,,,1.64,476,Wunderground v.1.15,2013-11-18 03:26:00,
2013-11-18 14:31:00,68.0,61.6,28.68,ENE,68,4.0,-999.0,80,0.01,,,1.64,476,Wunderground v.1.15,2013-11-18 03:31:00,
2013-11-18 14:35:00,67.0,60.6,28.69,East,80,4.0,4.0,80,0.00,,,1.64,434,Wunderground v.1.15,2013-11-18 03:35:00,
2013-11-18 14:36:00,68.0,61.6,28.68,ENE,68,4.0,-999.0,80,0.01,,,1.64,476,Wunderground v.1.15,2013-11-18 03:36:00,
2013-11-18 14:41:00,68.0,61.6,28.68,ENE,68,4.0,-999.0,80,0.01,,,1.64,476,Wunderground v.1.15,2013-11-18 03:41:00,
2013-11-18 14:45:00,66.0,60.0,28.69,ENE,70,4.0,5.0,81,0.00,,,1.64,345,Wunderground v.1.15,2013-11-18 03:45:00,
2013-11-18 14:46:00,66.4,60.0,28.69,NE,45,3.0,-999.0,80,0.01,,,1.64,376,Wunderground v.1.15,2013-11-18 03:46:00,
2013-11-18 14:50:00,66.2,60.2,28.69,East,82,3.0,3.0,81,0.00,,,1.64,401,Wunderground v.1.15,2013-11-18 03:50:00,
2013-11-18 14:51:00,66.4,60.0,28.69,NE,45,3.0,-999.0,80,0.01,,,1.64,376,Wunderground v.1.15,2013-11-18 03:51:00,
2013-11-18 14:55:00,66.1,60.1,28.69,ENE,77,3.0,4.0,81,0.00,,,1.64,346,Wunderground v.1.15,2013-11-18 03:55:00,
2013-11-18 14:56:00,66.4,60.0,28.69,NE,45,3.0,-999.0,80,0.01,,,1.64,376,Wunderground v.1.15,2013-11-18 03:56:00,
2013-11-18 15:00:00,66.2,59.8,28.69,NE,50,3.0,3.0,80,0.00,,,1.64,374,Wunderground v.1.15,2013-11-18 04:00:00,
2013-11-18 15:01:00,66.4,60.0,28.69,NE,45,3.0,-999.0,80,0.01,,,1.64,376,Wunderground v.1.15,2013-11-18 04:01:00,
2013-11-18 15:06:00,66.4,60.0,28.69,NE,45,3.0,-999.0,80,0.01,,,1.64,376,Wunderground v.1.15,2013-11-18 04:06:00,
2013-11-18 15:10:00,67.4,59.9,28.69,NE,53,4.0,7.0,77,0.00,,,1.64,461,Wunderground v.1.15,2013-11-18 04:10:00,
2013-11-18 15:11:00,66.4,60.0,28.69,NE,45,3.0,-999.0,80,0.01,,,1.64,376,Wunderground v.1.15,2013-11-18 04:11:00,
2013-11-18 15:16:00,66.2,60.2,28.70,NE,45,4.0,-999.0,81,0.00,,,1.64,287,Wunderground v.1.15,2013-11-18 04:16:00,
2013-11-18 15:20:00,65.9,58.5,28.70,East,79,5.0,7.0,77,0.00,,,1.64,255,Wunderground v.1.15,2013-11-18 04:20:00,
2013-11-18 15:21:00,66.2,60.2,28.70,NE,45,4.0,-999.0,81,0.00,,,1.64,287,Wunderground v.1.15,2013-11-18 04:21:00,
2013-11-18 15:25:00,65.1,58.8,28.70,NNE,19,3.0,7.0,80,0.00,,,1.64,162,Wunderground v.1.15,2013-11-18 04:25:00,
2013-11-18 15:26:00,66.2,60.2,28.70,NE,45,4.0,-999.0,81,0.00,,,1.64,287,Wunderground v.1.15,2013-11-18 04:26:00,
2013-11-18 15:31:00,66.2,60.2,28.70,NE,45,4.0,-999.0,81,0.00,,,1.64,287,Wunderground v.1.15,2013-11-18 04:31:00,
2013-11-18 15:35:00,65.1,59.1,28.70,NE,36,3.0,4.0,81,0.00,,,1.64,278,Wunderground v.1.15,2013-11-18 04:35:00,
2013-11-18 15:36:00,66.2,60.2,28.70,NE,45,4.0,-999.0,81,0.00,,,1.64,287,Wunderground v.1.15,2013-11-18 04:36:00,
2013-11-18 15:40:00,65.1,59.5,28.70,NE,39,3.0,4.0,82,0.00,,,1.64,272,Wunderground v.1.15,2013-11-18 04:40:00,
2013-11-18 15:41:00,66.2,60.2,28.70,NE,45,4.0,-999.0,81,0.00,,,1.64,287,Wunderground v.1.15,2013-11-18 04:41:00,
2013-11-18 15:45:00,65.7,59.7,28.71,NNW,331,3.0,4.0,81,0.00,,,1.64,431,Wunderground v.1.15,2013-11-18 04:45:00,
2013-11-18 15:46:00,65.7,58.7,28.71,NNE,23,2.0,-999.0,78,0.00,,,1.64,307,Wunderground v.1.15,2013-11-18 04:46:00,
2013-11-18 15:51:00,65.7,58.7,28.71,NNE,23,2.0,-999.0,78,0.00,,,1.64,307,Wunderground v.1.15,2013-11-18 04:51:00,
2013-11-18 15:56:00,65.7,58.7,28.71,NNE,23,2.0,-999.0,78,0.00,,,1.64,307,Wunderground v.1.15,2013-11-18 04:56:00,
2013-11-18 16:01:00,65.7,58.7,28.71,NNE,23,2.0,-999.0,78,0.00,,,1.64,307,Wunderground v.1.15,2013-11-18 05:01:00,
2013-11-18 16:06:00,65.7,58.7,28.71,NNE,23,2.0,-999.0,78,0.00,,,1.64,307,Wunderground v.1.15,2013-11-18 05:06:00,
2013-11-18 16:11:00,65.7,58.7,28.71,NNE,23,2.0,-999.0,78,0.00,,,1.64,307,Wunderground v.1.15,2013-11-18 05:11:00,
2013-11-18 16:16:00,68.0,57.4,28.72,North,0,2.0,-999.0,69,0.00,,,1.64,546,Wunderground v.1.15,2013-11-18 05:16:00,
2013-11-18 16:21:00,68.0,57.4,28.72,North,0,2.0,-999.0,69,0.00,,,1.64,546,Wunderground v.1.15,2013-11-18 05:21:00,
2013-11-18 16:26:00,68.0,57.4,28.72,North,0,2.0,-999.0,69,0.00,,,1.64,546,Wunderground v.1.15,2013-11-18 05:26:00,
2013-11-18 16:31:00,68.0,57.4,28.72,North,0,2.0,-999.0,69,0.00,,,1.64,546,Wunderground v.1.15,2013-11-18 05:31:00,
2013-11-18 16:36:00,68.0,57.4,28.72,North,0,2.0,-999.0,69,0.00,,,1.64,546,Wunderground v.1.15,2013-11-18 05:36:00,
2013-11-18 16:41:00,68.0,57.4,28.72,North,0,2.0,-999.0,69,0.00,,,1.64,546,Wunderground v.1.15,2013-11-18 05:41:00,
2013-11-18 16:46:00,69.9,59.7,28.73,NNW,338,2.0,-999.0,70,0.00,,,1.64,413,Wunderground v.1.15,2013-11-18 05:46:00,
2013-11-18 16:51:00,69.9,59.7,28.73,NNW,338,2.0,-999.0,70,0.00,,,1.64,413,Wunderground v.1.15,2013-11-18 05:51:00,
2013-11-18 16:56:00,69.9,59.7,28.73,NNW,338,2.0,-999.0,70,0.00,,,1.64,413,Wunderground v.1.15,2013-11-18 05:56:00,
2013-11-18 17:01:00,69.9,59.7,28.73,NNW,338,2.0,-999.0,70,0.00,,,1.64,413,Wunderground v.1.15,2013-11-18 06:01:00,
2013-11-18 17:06:00,69.9,59.7,28.73,NNW,338,2.0,-999.0,70,0.00,,,1.64,413,Wunderground v.1.15,2013-11-18 06:06:00,
2013-11-18 17:11:00,69.9,59.7,28.73,NNW,338,2.0,-999.0,70,0.00,,,1.64,413,Wunderground v.1.15,2013-11-18 06:11:00,
2013-11-18 17:16:00,67.3,59.5,28.73,NW,315,1.0,-999.0,76,0.00,,,1.64,224,Wunderground v.1.15,2013-11-18 06:16:00,
2013-11-18 17:21:00,67.3,59.5,28.73,NW,315,1.0,-999.0,76,0.00,,,1.64,224,Wunderground v.1.15,2013-11-18 06:21:00,
2013-11-18 17:26:00,67.3,59.5,28.73,NW,315,1.0,-999.0,76,0.00,,,1.64,224,Wunderground v.1.15,2013-11-18 06:26:00,
2013-11-18 17:31:00,67.3,59.5,28.73,NW,315,1.0,-999.0,76,0.00,,,1.64,224,Wunderground v.1.15,2013-11-18 06:31:00,
2013-11-18 17:36:00,67.3,59.5,28.73,NW,315,1.0,-999.0,76,0.00,,,1.64,224,Wunderground v.1.15,2013-11-18 06:36:00,
2013-11-18 17:41:00,67.3,59.5,28.73,NW,315,1.0,-999.0,76,0.00,,,1.64,224,Wunderground v.1.15,2013-11-18 06:41:00,
2013-11-18 17:46:00,66.3,58.9,28.73,West,270,1.0,-999.0,77,0.00,,,1.64,201,Wunderground v.1.15,2013-11-18 06:46:00,
2013-11-18 17:51:00,66.3,58.9,28.73,West,270,1.0,-999.0,77,0.00,,,1.64,201,Wunderground v.1.15,2013-11-18 06:51:00,
2013-11-18 17:56:00,66.3,58.9,28.73,West,270,1.0,-999.0,77,0.00,,,1.64,201,Wunderground v.1.15,2013-11-18 06:56:00,
2013-11-18 18:01:00,66.3,58.9,28.73,West,270,1.0,-999.0,77,0.00,,,1.64,201,Wunderground v.1.15,2013-11-18 07:01:00,
2013-11-18 18:06:00,66.3,58.9,28.73,West,270,1.0,-999.0,77,0.00,,,1.64,201,Wunderground v.1.15,2013-11-18 07:06:00,
2013-11-18 18:11:00,66.3,58.9,28.73,West,270,1.0,-999.0,77,0.00,,,1.64,201,Wunderground v.1.15,2013-11-18 07:11:00,
2013-11-18 18:16:00,65.2,59.6,28.75,SW,225,1.0,-999.0,82,0.00,,,1.64,86,Wunderground v.1.15,2013-11-18 07:16:00,
2013-11-18 18:21:00,65.2,59.6,28.75,SW,225,1.0,-999.0,82,0.00,,,1.64,86,Wunderground v.1.15,2013-11-18 07:21:00,
2013-11-18 18:26:00,65.2,59.6,28.75,SW,225,1.0,-999.0,82,0.00,,,1.64,86,Wunderground v.1.15,2013-11-18 07:26:00,
2013-11-18 18:31:00,65.2,59.6,28.75,SW,225,1.0,-999.0,82,0.00,,,1.64,86,Wunderground v.1.15,2013-11-18 07:31:00,
2013-11-18 18:36:00,65.2,59.6,28.75,SW,225,1.0,-999.0,82,0.00,,,1.64,86,Wunderground v.1.15,2013-11-18 07:36:00,
2013-11-18 18:41:00,65.2,59.6,28.75,SW,225,1.0,-999.0,82,0.00,,,1.64,86,Wunderground v.1.15,2013-11-18 07:41:00,
2013-11-18 18:46:00,64.3,59.0,28.76,SSW,203,0.0,-999.0,83,0.00,,,1.64,36,Wunderground v.1.15,2013-11-18 07:46:00,
2013-11-18 18:51:00,64.3,59.0,28.76,SSW,203,0.0,-999.0,83,0.00,,,1.64,36,Wunderground v.1.15,2013-11-18 07:51:00,
2013-11-18 18:56:00,64.3,59.0,28.76,SSW,203,0.0,-999.0,83,0.00,,,1.64,36,Wunderground v.1.15,2013-11-18 07:56:00,
2013-11-18 19:01:00,64.3,59.0,28.76,SSW,203,0.0,-999.0,83,0.00,,,1.64,36,Wunderground v.1.15,2013-11-18 08:01:00,
2013-11-18 19:06:00,64.3,59.0,28.76,SSW,203,0.0,-999.0,83,0.00,,,1.64,36,Wunderground v.1.15,2013-11-18 08:06:00,
2013-11-18 19:11:00,64.3,59.0,28.76,SSW,203,0.0,-999.0,83,0.00,,,1.64,36,Wunderground v.1.15,2013-11-18 08:11:00,
2013-11-18 19:16:00,63.6,59.3,28.76,SW,225,0.0,-999.0,86,0.00,,,1.64,15,Wunderground v.1.15,2013-11-18 08:16:00,
2013-11-18 19:21:00,63.6,59.3,28.76,SW,225,0.0,-999.0,86,0.00,,,1.64,15,Wunderground v.1.15,2013-11-18 08:21:00,
2013-11-18 19:26:00,63.6,59.3,28.76,SW,225,0.0,-999.0,86,0.00,,,1.64,15,Wunderground v.1.15,2013-11-18 08:26:00,
2013-11-18 19:31:00,63.6,59.3,28.76,SW,225,0.0,-999.0,86,0.00,,,1.64,15,Wunderground v.1.15,2013-11-18 08:31:00,
2013-11-18 19:36:00,63.6,59.3,28.76,SW,225,0.0,-999.0,86,0.00,,,1.64,15,Wunderground v.1.15,2013-11-18 08:36:00,
2013-11-18 19:41:00,63.6,59.3,28.76,SW,225,0.0,-999.0,86,0.00,,,1.64,15,Wunderground v.1.15,2013-11-18 08:41:00,
2013-11-18 19:46:00,63.2,59.3,28.77,SSW,203,0.0,-999.0,87,0.00,,,1.64,1,Wunderground v.1.15,2013-11-18 08:46:00,
2013-11-18 19:51:00,63.2,59.3,28.77,SSW,203,0.0,-999.0,87,0.00,,,1.64,1,Wunderground v.1.15,2013-11-18 08:51:00,
2013-11-18 19:56:00,63.2,59.3,28.77,SSW,203,0.0,-999.0,87,0.00,,,1.64,1,Wunderground v.1.15,2013-11-18 08:56:00,
2013-11-18 20:01:00,63.2,59.3,28.77,SSW,203,0.0,-999.0,87,0.00,,,1.64,1,Wunderground v.1.15,2013-11-18 09:01:00,
2013-11-18 20:06:00,63.2,59.3,28.77,SSW,203,0.0,-999.0,87,0.00,,,1.64,1,Wunderground v.1.15,2013-11-18 09:06:00,
2013-11-18 20:11:00,63.2,59.3,28.77,SSW,203,0.0,-999.0,87,0.00,,,1.64,1,Wunderground v.1.15,2013-11-18 09:11:00,
2013-11-18 20:16:00,62.9,59.3,28.77,SSW,203,0.0,-999.0,88,0.00,,,1.64,0,Wunderground v.1.15,2013-11-18 09:16:00,
2013-11-18 20:21:00,62.9,59.3,28.77,SSW,203,0.0,-999.0,88,0.00,,,1.64,0,Wunderground v.1.15,2013-11-18 09:21:00,
2013-11-18 20:26:00,62.9,59.3,28.77,SSW,203,0.0,-999.0,88,0.00,,,1.64,0,Wunderground v.1.15,2013-11-18 09:26:00,
2013-11-18 20:31:00,62.9,59.3,28.77,SSW,203,0.0,-999.0,88,0.00,,,1.64,0,Wunderground v.1.15,2013-11-18 09:31:00,
2013-11-18 20:36:00,62.9,59.3,28.77,SSW,203,0.0,-999.0,88,0.00,,,1.64,0,Wunderground v.1.15,2013-11-18 09:36:00,
2013-11-18 20:41:00,62.9,59.3,28.77,SSW,203,0.0,-999.0,88,0.00,,,1.64,0,Wunderground v.1.15,2013-11-18 09:41:00,
2013-11-18 20:45:00,62.6,59.3,28.77,SW,227,1.0,1.0,89,0.00,,,1.64,0,Wunderground v.1.15,2013-11-18 09:45:00,
2013-11-18 20:46:00,62.6,59.6,28.78,SW,225,0.0,-999.0,90,0.00,,,1.64,0,Wunderground v.1.15,2013-11-18 09:46:00,
2013-11-18 20:50:00,62.6,59.3,28.77,SW,227,0.0,1.0,89,0.00,,,1.64,0,Wunderground v.1.15,2013-11-18 09:50:00,
2013-11-18 20:51:00,62.6,59.6,28.78,SW,225,0.0,-999.0,90,0.00,,,1.64,0,Wunderground v.1.15,2013-11-18 09:51:00,
2013-11-18 20:56:00,62.6,59.6,28.78,SW,225,0.0,-999.0,90,0.00,,,1.64,0,Wunderground v.1.15,2013-11-18 09:56:00,
2013-11-18 21:00:00,62.6,59.6,28.77,SE,136,0.0,0.0,90,0.00,,,1.64,0,Wunderground v.1.15,2013-11-18 10:00:00,
2013-11-18 21:01:00,62.6,59.6,28.78,SW,225,0.0,-999.0,90,0.00,,,1.64,0,Wunderground v.1.15,2013-11-18 10:01:00,
2013-11-18 21:06:00,62.6,59.6,28.78,SW,225,0.0,-999.0,90,0.00,,,1.64,0,Wunderground v.1.15,2013-11-18 10:06:00,
2013-11-18 21:11:00,62.6,59.6,28.78,SW,225,0.0,-999.0,90,0.00,,,1.64,0,Wunderground v.1.15,2013-11-18 10:11:00,
2013-11-18 21:16:00,62.5,59.8,28.78,SW,225,0.0,-999.0,91,0.00,,,1.64,0,Wunderground v.1.15,2013-11-18 10:16:00,
2013-11-18 21:20:00,62.6,59.6,28.78,SW,229,0.0,0.0,90,0.00,,,1.64,0,Wunderground v.1.15,2013-11-18 10:20:00,
2013-11-18 21:21:00,62.5,59.8,28.78,SW,225,0.0,-999.0,91,0.00,,,1.64,0,Wunderground v.1.15,2013-11-18 10:21:00,
2013-11-18 21:26:00,62.5,59.8,28.78,SW,225,0.0,-999.0,91,0.00,,,1.64,0,Wunderground v.1.15,2013-11-18 10:26:00,
2013-11-18 21:30:00,62.3,59.3,28.78,SW,229,0.0,0.0,90,0.00,,,1.64,0,Wunderground v.1.15,2013-11-18 10:30:00,
2013-11-18 21:31:00,62.5,59.8,28.78,SW,225,0.0,-999.0,91,0.00,,,1.64,0,Wunderground v.1.15,2013-11-18 10:31:00,
2013-11-18 21:35:00,62.3,59.6,28.78,SW,229,0.0,0.0,91,0.00,,,1.64,0,Wunderground v.1.15,2013-11-18 10:35:00,
2013-11-18 21:36:00,62.5,59.8,28.78,SW,225,0.0,-999.0,91,0.00,,,1.64,0,Wunderground v.1.15,2013-11-18 10:36:00,
2013-11-18 21:40:00,62.3,59.6,28.78,SW,229,0.0,0.0,91,0.00,,,1.64,0,Wunderground v.1.15,2013-11-18 10:40:00,
2013-11-18 21:41:00,62.5,59.8,28.78,SW,225,0.0,-999.0,91,0.00,,,1.64,0,Wunderground v.1.15,2013-11-18 10:41:00,
2013-11-18 21:45:00,62.2,59.5,28.78,SW,229,0.0,0.0,91,0.00,,,1.64,0,Wunderground v.1.15,2013-11-18 10:45:00,
2013-11-18 21:46:00,62.2,59.5,28.78,SW,225,0.0,-999.0,91,0.00,,,1.64,0,Wunderground v.1.15,2013-11-18 10:46:00,
2013-11-18 21:51:00,62.2,59.5,28.78,SW,225,0.0,-999.0,91,0.00,,,1.64,0,Wunderground v.1.15,2013-11-18 10:51:00,
2013-11-18 21:55:00,62.1,59.4,28.77,SW,224,0.0,2.0,91,0.00,,,1.64,0,Wunderground v.1.15,2013-11-18 10:55:00,
2013-11-18 21:56:00,62.2,59.5,28.78,SW,225,0.0,-999.0,91,0.00,,,1.64,0,Wunderground v.1.15,2013-11-18 10:56:00,
2013-11-18 22:00:00,62.1,59.4,28.77,SW,224,0.0,0.0,91,0.00,,,1.64,0,Wunderground v.1.15,2013-11-18 11:00:00,
2013-11-18 22:01:00,62.2,59.5,28.78,SW,225,0.0,-999.0,91,0.00,,,1.64,0,Wunderground v.1.15,2013-11-18 11:01:00,
2013-11-18 22:05:00,62.0,59.3,28.78,SW,224,0.0,0.0,91,0.00,,,1.64,0,Wunderground v.1.15,2013-11-18 11:05:00,
2013-11-18 22:06:00,62.2,59.5,28.78,SW,225,0.0,-999.0,91,0.00,,,1.64,0,Wunderground v.1.15,2013-11-18 11:06:00,
2013-11-18 22:11:00,62.2,59.5,28.78,SW,225,0.0,-999.0,91,0.00,,,1.64,0,Wunderground v.1.15,2013-11-18 11:11:00,
2013-11-18 22:15:00,61.9,59.5,28.77,SW,224,0.0,0.0,92,0.00,,,1.64,0,Wunderground v.1.15,2013-11-18 11:15:00,
2013-11-18 22:16:00,62.0,59.6,28.77,SW,225,0.0,-999.0,92,0.00,,,1.64,0,Wunderground v.1.15,2013-11-18 11:16:00,
2013-11-18 22:20:00,62.0,60.0,28.77,SSW,207,0.0,0.0,93,0.00,,,1.64,0,Wunderground v.1.15,2013-11-18 11:20:00,
2013-11-18 22:21:00,62.0,59.6,28.77,SW,225,0.0,-999.0,92,0.00,,,1.64,0,Wunderground v.1.15,2013-11-18 11:21:00,
2013-11-18 22:25:00,62.1,59.7,28.77,SSW,199,1.0,1.0,92,0.00,,,1.64,0,Wunderground v.1.15,2013-11-18 11:25:00,
2013-11-18 22:26:00,62.0,59.6,28.77,SW,225,0.0,-999.0,92,0.00,,,1.64,0,Wunderground v.1.15,2013-11-18 11:26:00,
2013-11-18 22:30:00,62.2,59.8,28.77,SSW,199,0.0,0.0,92,0.00,,,1.64,0,Wunderground v.1.15,2013-11-18 11:30:00,
2013-11-18 22:31:00,62.0,59.6,28.77,SW,225,0.0,-999.0,92,0.00,,,1.64,0,Wunderground v.1.15,2013-11-18 11:31:00,
2013-11-18 22:35:00,62.3,59.9,28.77,SSE,166,0.0,0.0,92,0.00,,,1.64,0,Wunderground v.1.15,2013-11-18 11:35:00,
2013-11-18 22:36:00,62.0,59.6,28.77,SW,225,0.0,-999.0,92,0.00,,,1.64,0,Wunderground v.1.15,2013-11-18 11:36:00,
2013-11-18 22:41:00,62.0,59.6,28.77,SW,225,0.0,-999.0,92,0.00,,,1.64,0,Wunderground v.1.15,2013-11-18 11:41:00,
2013-11-18 22:45:00,62.5,60.1,28.77,SSW,196,0.0,3.0,92,0.00,,,1.64,0,Wunderground v.1.15,2013-11-18 11:45:00,
2013-11-18 22:46:00,62.5,60.1,28.77,SW,225,1.0,-999.0,92,0.00,,,1.64,0,Wunderground v.1.15,2013-11-18 11:46:00,
2013-11-18 22:50:00,62.6,60.2,28.77,WSW,244,1.0,1.0,92,0.00,,,1.64,0,Wunderground v.1.15,2013-11-18 11:50:00,
2013-11-18 22:51:00,62.5,60.1,28.77,SW,225,1.0,-999.0,92,0.00,,,1.64,0,Wunderground v.1.15,2013-11-18 11:51:00,
2013-11-18 22:55:00,62.7,60.3,28.77,SW,236,1.0,1.0,92,0.00,,,1.64,0,Wunderground v.1.15,2013-11-18 11:55:00,
2013-11-18 22:56:00,62.5,60.1,28.77,SW,225,1.0,-999.0,92,0.00,,,1.64,0,Wunderground v.1.15,2013-11-18 11:56:00,
2013-11-18 23:00:00,62.7,60.3,28.76,SW,217,1.0,1.0,92,0.00,,,1.64,0,Wunderground v.1.15,2013-11-18 12:00:00,
2013-11-18 23:01:00,62.5,60.1,28.77,SW,225,1.0,-999.0,92,0.00,,,1.64,0,Wunderground v.1.15,2013-11-18 12:01:00,
2013-11-18 23:05:00,62.6,60.2,28.76,SSW,213,1.0,5.0,92,0.00,,,1.64,0,Wunderground v.1.15,2013-11-18 12:05:00,
2013-11-18 23:06:00,62.5,60.1,28.77,SW,225,1.0,-999.0,92,0.00,,,1.64,0,Wunderground v.1.15,2013-11-18 12:06:00,
2013-11-18 23:11:00,62.5,60.1,28.77,SW,225,1.0,-999.0,92,0.00,,,1.64,0,Wunderground v.1.15,2013-11-18 12:11:00,
2013-11-18 23:15:00,62.3,59.9,28.76,SW,221,1.0,1.0,92,0.00,,,1.64,0,Wunderground v.1.15,2013-11-18 12:15:00,
2013-11-18 23:16:00,62.3,60.2,28.76,SW,225,1.0,-999.0,93,0.00,,,1.64,0,Wunderground v.1.15,2013-11-18 12:16:00,
2013-11-18 23:20:00,62.2,59.8,28.76,South,178,1.0,1.0,92,0.00,,,1.64,0,Wunderground v.1.15,2013-11-18 12:20:00,
2013-11-18 23:21:00,62.3,60.2,28.76,SW,225,1.0,-999.0,93,0.00,,,1.64,0,Wunderground v.1.15,2013-11-18 12:21:00,
2013-11-18 23:25:00,62.1,59.7,28.76,SW,235,1.0,1.0,92,0.00,,,1.64,0,Wunderground v.1.15,2013-11-18 12:25:00,
2013-11-18 23:26:00,62.3,60.2,28.76,SW,225,1.0,-999.0,93,0.00,,,1.64,0,Wunderground v.1.15,2013-11-18 12:26:00,
2013-11-18 23:31:00,62.3,60.2,28.76,SW,225,1.0,-999.0,93,0.00,,,1.64,0,Wunderground v.1.15,2013-11-18 12:31:00,
2013-11-18 23:35:00,62.1,60.1,28.76,West,267,1.0,1.0,93,0.00,,,1.64,0,Wunderground v.1.15,2013-11-18 12:35:00,
2013-11-18 23:36:00,62.3,60.2,28.76,SW,225,1.0,-999.0,93,0.00,,,1.64,0,Wunderground v.1.15,2013-11-18 12:36:00,
2013-11-18 23:40:00,61.9,59.9,28.76,WSW,248,2.0,2.0,93,0.00,,,1.64,0,Wunderground v.1.15,2013-11-18 12:40:00,
2013-11-18 23:41:00,62.3,60.2,28.76,SW,225,1.0,-999.0,93,0.00,,,1.64,0,Wunderground v.1.15,2013-11-18 12:41:00,
2013-11-18 23:46:00,61.8,59.8,28.76,SW,225,2.0,-999.0,93,0.00,,,1.64,0,Wunderground v.1.15,2013-11-18 12:46:00,
2013-11-18 23:50:00,61.7,59.7,28.76,West,261,2.0,3.0,93,0.00,,,1.64,0,Wunderground v.1.15,2013-11-18 12:50:00,
2013-11-18 23:51:00,61.8,59.8,28.76,SW,225,2.0,-999.0,93,0.00,,,1.64,0,Wunderground v.1.15,2013-11-18 12:51:00,
2013-11-18 23:55:00,61.6,59.6,28.75,SW,236,2.0,3.0,93,0.00,,,1.64,0,Wunderground v.1.15,2013-11-18 12:55:00,
2013-11-18 23:56:00,61.8,59.8,28.76,SW,225,2.0,-999.0,93,0.00,,,1.64,0,Wunderground v.1.15,2013-11-18 12:56:00,